Location: Emblem
(62.4273°N, 6.4710°E)
Time: 19:55:51
(UTC+01:00)

Transit 2A Rocket - All Passes

Search period start: 30 January 2023 00:00
Search period end: 09 February 2023 00:00
Orbit: 585 x 915 km, 66.7° (Epoch: 30 January)

Date Brightness Start Highest point End Pass type
(mag) Time Alt. Az. Time Alt. Az. Time Alt. Az.
30 Jan - 00:58:18 10° SSE 01:02:16 23° ESE 01:06:32 10° ENE visible
30 Jan - 02:38:49 10° SW 02:44:00 66° SE 02:49:43 10° ENE visible
30 Jan - 04:21:22 10° W 04:26:46 65° NNW 04:32:38 10° ENE visible
30 Jan - 06:04:29 10° WNW 06:10:02 58° N 06:15:58 10° E visible
30 Jan - 07:47:20 10° WNW 07:53:08 87° NE 07:59:14 10° ESE visible
30 Jan - 09:30:01 10° WNW 09:35:30 42° SW 09:41:10 10° SSE daylight
30 Jan - 11:13:59 10° WNW 11:16:50 14° WSW 11:19:43 10° SW daylight
31 Jan - 00:16:33 10° SE 00:19:40 16° ESE 00:22:56 10° ENE visible
31 Jan - 01:56:02 10° SSW 02:01:03 50° SE 02:06:34 10° ENE visible
31 Jan - 03:38:11 10° WSW 03:43:33 75° NNW 03:49:27 10° ENE visible
31 Jan - 05:21:17 10° W 05:26:45 57° N 05:32:39 10° E visible
31 Jan - 07:04:14 10° WNW 07:09:58 75° NNE 07:16:03 10° ESE visible
31 Jan - 08:46:54 10° WNW 08:52:36 54° SW 08:58:31 10° SSE daylight
31 Jan - 10:30:09 10° WNW 10:34:14 20° WSW 10:38:25 10° SSW daylight
31 Jan - 23:35:52 10° ESE 23:37:09 11° E 23:38:26 10° E night (unlit)
01 Feb - 01:13:25 10° S 01:18:12 38° SE 01:23:24 10° ENE visible
01 Feb - 02:55:05 10° WSW 03:00:25 88° NNW 03:06:18 10° ENE visible
01 Feb - 04:38:02 10° W 04:43:30 58° N 04:49:23 10° ENE visible
01 Feb - 06:21:05 10° WNW 06:26:45 66° NNE 06:32:48 10° E visible
01 Feb - 08:03:48 10° WNW 08:09:36 69° SW 08:15:40 10° SE visible
01 Feb - 09:46:43 10° WNW 09:51:33 27° WSW 09:56:30 10° S daylight
02 Feb - 00:31:04 10° S 00:35:25 28° ESE 00:40:08 10° ENE visible
02 Feb - 02:12:03 10° SW 02:17:20 76° SE 02:23:09 10° ENE visible
02 Feb - 03:54:48 10° W 04:00:14 62° NNW 04:06:08 10° ENE visible
02 Feb - 05:37:55 10° WNW 05:43:32 60° NNE 05:49:31 10° E visible
02 Feb - 07:20:42 10° WNW 07:26:32 85° SW 07:32:39 10° SE visible
02 Feb - 09:03:28 10° WNW 09:08:46 35° WSW 09:14:14 10° S daylight
02 Feb - 10:48:25 10° W 10:49:54 11° W 10:51:23 10° WSW daylight
02 Feb - 23:49:01 10° SSE 23:52:45 20° ESE 23:56:42 10° ENE night (unlit)
03 Feb - 01:29:10 10° SSW 01:34:20 60° SE 01:40:01 10° ENE visible
03 Feb - 03:11:35 10° WSW 03:17:01 69° NNW 03:22:55 10° ENE visible
03 Feb - 04:54:43 10° WNW 05:00:16 57° N 05:06:12 10° E visible
03 Feb - 06:37:36 10° WNW 06:43:24 81° NNE 06:49:32 10° ESE visible
03 Feb - 08:20:18 10° WNW 08:25:54 47° SW 08:31:42 10° SSE daylight
03 Feb - 10:03:53 10° WNW 10:07:21 16° WSW 10:10:53 10° SW daylight
03 Feb - 23:07:31 10° SE 23:10:10 14° ESE 23:12:55 10° ENE night (unlit)
04 Feb - 00:46:27 10° SSW 00:51:25 45° SE 00:56:52 10° ENE visible
04 Feb - 02:28:25 10° WSW 02:33:50 79° NNW 02:39:44 10° ENE visible
04 Feb - 04:11:29 10° W 04:16:59 57° N 04:22:55 10° ENE visible
04 Feb - 05:54:29 10° WNW 06:00:14 71° NNE 06:06:19 10° ESE visible
04 Feb - 07:37:11 10° WNW 07:42:57 60° SW 07:48:57 10° SSE visible
04 Feb - 09:20:16 10° WNW 09:24:43 22° WSW 09:29:15 10° SSW daylight
05 Feb - 00:03:56 10° S 00:08:36 33° ESE 00:13:39 10° ENE visible
05 Feb - 01:45:20 10° SW 01:50:42 86° SSE 01:56:36 10° ENE visible
05 Feb - 03:28:15 10° W 03:33:43 59° N 03:39:38 10° ENE visible
05 Feb - 05:11:19 10° WNW 05:17:00 63° NNE 05:23:03 10° E visible
05 Feb - 06:54:04 10° WNW 06:59:55 76° SW 07:06:02 10° SE visible
05 Feb - 08:36:55 10° WNW 08:41:59 30° WSW 08:47:11 10° S daylight
05 Feb - 23:21:41 10° SSE 23:25:52 25° ESE 23:30:21 10° ENE night (unlit)
06 Feb - 01:02:22 10° SW 01:07:39 70° SE 01:13:27 10° ENE visible
06 Feb - 02:45:00 10° W 02:50:28 64° NNW 02:56:24 10° ENE visible
06 Feb - 04:28:08 10° WNW 04:33:45 59° N 04:39:44 10° E visible
06 Feb - 06:10:58 10° WNW 06:16:50 89° NNE 06:22:58 10° ESE visible
06 Feb - 07:53:42 10° WNW 07:59:10 40° SW 08:04:48 10° SSE visible
06 Feb - 09:37:51 10° WNW 09:40:26 13° WSW 09:43:02 10° SW daylight
06 Feb - 22:39:48 10° SSE 22:43:13 18° ESE 22:46:49 10° ENE night (unlit)
07 Feb - 00:19:32 10° SSW 00:24:41 54° SE 00:30:19 10° ENE visible
07 Feb - 02:01:48 10° WSW 02:07:15 73° NNW 02:13:12 10° ENE visible
07 Feb - 03:44:55 10° WNW 03:50:29 57° N 03:56:26 10° E visible
07 Feb - 05:27:51 10° WNW 05:33:41 77° NNE 05:39:48 10° ESE visible
07 Feb - 07:10:33 10° WNW 07:16:15 52° SW 07:22:09 10° SSE visible
07 Feb - 08:53:53 10° WNW 08:57:51 19° WSW 09:01:52 10° SSW daylight
07 Feb - 21:58:42 10° SE 22:00:41 12° ESE 22:02:43 10° E night (unlit)
07 Feb - 23:36:53 10° SSW 23:41:47 40° SE 23:47:08 10° ENE visible
08 Feb - 01:18:39 10° WSW 01:24:05 85° NNW 01:30:02 10° ENE visible
08 Feb - 03:01:40 10° W 03:07:12 58° N 03:13:08 10° ENE visible
08 Feb - 04:44:43 10° WNW 04:50:28 67° NNE 04:56:33 10° ESE visible
08 Feb - 06:27:26 10° WNW 06:33:16 67° SW 06:39:20 10° SE visible
08 Feb - 08:10:24 10° WNW 08:15:09 25° WSW 08:20:01 10° SSW daylight
08 Feb - 22:54:28 10° S 22:59:00 30° ESE 23:03:53 10° ENE night (unlit)
